Regional Weather Roundup
Issued by NWS

Home | Current Version | Previous Version | Graphics & Text | Print | Product List | Glossary On
Versions: 1 2 3 4 5 6 7 8 9 10 11 12 13 14 15 16 17 18 19 20 21 22 23 24 25 26 27 28 29 30 31 32 33 34 35 36 37 38 39 40 41 42 43 44 45 46 47 48 49 50
000
ASUS43 KIND 071909
RWRIN

WEATHER ROUNDUP FOR INDIANA
NATIONAL WEATHER SERVICE INDIANAPOLIS IN
300 PM EDT TUE JUL 07 2015

NOTE: "FAIR" INDICATES FEW OR NO CLOUDS BELOW 12,000 FEET WITH NO
SIGNIFICANT WEATHER AND/OR OBSTRUCTIONS TO VISIBILITY.

* - STATION DOES NOT REPORT WEATHER SUCH AS PRECIPITATION OR FOG.

+ - STATION NOT QUALITY CONTROLLED BY THE NATIONAL WEATHER SERVICE.
    USE DATA WITH CAUTION...ESPECIALLY DEWPOINT AND RELATIVE
    HUMIDITY OBSERVATIONS.

INZ001>003-010>013-019-020-072000-
NORTHWEST INDIANA

CITY           SKY/WX    TMP DP  RH WIND       PRES   REMARKS
GARY /AIRPORT/ PTSUNNY   64  54  68 N17G30    30.05R
KNOX *+        CLOUDY    66  52  59 N21       29.98R
LA PORTE +     CLOUDY    67  53  60 N21G28    30.01R
MICHIGAN CITY+ MOSUNNY   63  52  67 N13G21    30.02R
MONTICELLO +   CLOUDY    65  61  85 N15       29.96S
RENSSELAER +   CLOUDY    68  55  64 N15G23    29.99R
VALPARAISO     PTSUNNY   65  50  58 N18G28    30.01R

$$

LMZ046-743>745-072000-
SOUTHERN LAKE MICHIGAN

STATION/POSITION TIME  TEMP    WIND        PRES    WAVE
                       AIR SEA DIR/SP/G            HT
                 (UTC) (F)     (DEG/KT/KT) (MB)    (FT)
BURNS HARBOR     1900   59      10/ 18/ 23 1017.3R
MICHIGAN CITY    1900   59     340/ 22/ 26   N/A
5NW MICH CITY    1900   60 65   10/ 17/ 23   N/A     7

$$

INZ004-005-014>016-021>024-072000-
NORTH CENTRAL INDIANA

CITY           SKY/WX    TMP DP  RH WIND       PRES   REMARKS
ELKHART        CLOUDY    70  57  64 NW10G16   29.96R
GOSHEN         CLOUDY    67  59  75 N7        29.96R
LOGANSPORT +   DRIZZLE   64  59  82 N12G20    29.96R
PERU/GRISSOM   LGT RAIN  66  63  88 N10       29.94R
ROCHESTER +    CLOUDY    66  63  88 N12       29.97R
SOUTH BEND     MOSUNNY   69  53  56 N21G28    29.98R
WARSAW +         N/A     64  63  94 N6        29.96R

$$

INZ006>009-017-018-025>027-072000-
NORTHEAST INDIANA

CITY           SKY/WX    TMP DP  RH WIND       PRES   REMARKS
ANGOLA *+      CLOUDY    64  57  77 N8        29.93R
AUBURN +       DRIZZLE   68  64  88 NW7       29.93S
FORT WAYNE     LGT RAIN  69  67  93 NW9       29.93R
HUNTINGTON +   LGT RAIN  68  66  94 NW7       29.93S

$$

INZ028-029-035-036-043>045-051>053-072000-
WEST CENTRAL INDIANA

CITY           SKY/WX    TMP DP  RH WIND       PRES   REMARKS
CRAWFORDSVL +  DRIZZLE   64  63  96 N9G17     29.94S
GREENCASTLE +  HVY RAIN  72  68  88 N8        29.91S VSB 1/2
LAFAYETTE      LGT RAIN  64  61  90 N14       29.96R
TERRE HAUTE    HVY RAIN  73  71  93 W12       29.92R VSB 1/2

$$

INZ030>032-037>040-046>048-054>057-064-065-072000-
CENTRAL INDIANA

CITY           SKY/WX    TMP DP  RH WIND       PRES   REMARKS
ANDERSON       LGT RAIN  70  68  94 S6        29.95S
CP ATTERBURY + CLOUDY    77  70  78 SW5       29.93S
COLUMBUS       CLOUDY    77  70  78 SW16      29.93F
FISHERS *+     CLOUDY    70  70 100 SW3       29.93S
FRANKFORT +    DRIZZLE  N/A N/A N/A MISG      29.97R
GREENWOOD *+   CLOUDY    72  70  94 CALM      29.94S
INDIANAPOLIS   HVY RAIN  71  68  90 CALM      29.92F FOG
-EAGLE CREEK   RAIN      72  71  97 VRB3      29.92S FOG
KOKOMO *+      CLOUDY    66  63  88 N10       29.94R
MARION +       LGT RAIN  68  67  96 NW9       29.94R
MT COMFORT *+  CLOUDY    70 N/A N/A S6        29.93F VSB 1
SHELBYVILLE    CLOUDY    74  70  87 VRB3      29.93S
ZIONSVILLE +   RAIN      70  67  88 N8        29.94S

$$

INZ033-034-041-042-049-050-058-059-072000-
EAST CENTRAL INDIANA

CITY           SKY/WX    TMP DP  RH WIND       PRES   REMARKS
MUNCIE         LGT RAIN  72  70  93 SW6       29.93S

$$

INZ060-061-067>069-081>083-085>088-072000-
SOUTHWEST INDIANA

CITY           SKY/WX    TMP DP  RH WIND       PRES   REMARKS
EVANSVILLE     LGT RAIN  75  73  93 SW15      29.99S FOG
HUNTINGBURG *+ CLOUDY    75  72  88 SW14      29.99R
WASHINGTON +   CLOUDY    78  70  78 SW10G18   29.94R

$$

INZ062-063-066-070>080-084-089>092-072000-
SOUTH CENTRAL AND SOUTHEAST INDIANA

CITY           SKY/WX    TMP DP  RH WIND       PRES   REMARKS
BLOOMINGTON    HVY RAIN  75  72  90 VRB3      29.92S VSB 3/4
MADISON *+     CLOUDY    75  70  83 SW12G17   29.99S
NORTH VERNON + CLOUDY    79  79 100 S13G20    29.95F
SEYMOUR +      CLOUDY    81  73  78 SW13      29.94F

$$



USA.gov is the U.S. government's official web portal to all federal, state and local government web resources and services.